2023/01/26 00:00:00,25.1,-6.0
2023/01/26 00:10:00,24.9,-6.0
2023/01/26 00:20:00,24.7,-6.6
2023/01/26 00:30:00,24.6,-7.4
2023/01/26 00:40:00,24.6,-7.3
2023/01/26 00:50:00,24.6,-7.8
2023/01/26 01:00:00,24.6,-7.2
2023/01/26 01:10:00,24.9,-8.0
2023/01/26 01:20:00,25.1,-7.7
2023/01/26 01:30:00,25.0,-6.7
2023/01/26 01:40:00,24.7,-6.2
2023/01/26 01:50:00,24.5,-6.4
2023/01/26 02:00:00,24.4,-6.3
2023/01/26 02:10:00,24.4,-5.8
2023/01/26 02:20:00,24.3,-6.0
2023/01/26 02:30:00,24.2,-6.0
2023/01/26 02:40:00,24.2,-5.9
2023/01/26 02:50:00,24.1,-5.8
2023/01/26 03:00:00,24.0,-7.2
2023/01/26 03:10:00,23.8,-7.5
2023/01/26 03:20:00,23.8,-7.8
2023/01/26 03:30:00,24.0,-7.5
2023/01/26 03:40:00,23.6,-6.4
2023/01/26 03:50:00,23.4,-6.8
2023/01/26 04:00:00,23.2,-6.9
2023/01/26 04:10:00,23.1,-7.5
2023/01/26 04:20:00,23.1,-7.9
2023/01/26 04:30:00,23.1,-7.3
2023/01/26 04:40:00,23.1,-6.8
2023/01/26 04:50:00,23.1,-6.4
2023/01/26 05:00:00,23.0,-6.6
2023/01/26 05:10:00,23.0,-6.6
2023/01/26 05:20:00,22.9,-6.1
2023/01/26 05:30:00,22.8,-6.0
2023/01/26 05:40:00,22.7,-5.7
2023/01/26 05:50:00,22.7,-5.6
2023/01/26 06:00:00,22.6,-5.7
2023/01/26 06:10:00,22.6,-5.4
2023/01/26 06:20:00,22.6,-5.2
2023/01/26 06:30:00,22.5,-5.3
2023/01/26 06:40:00,22.4,-6.0
2023/01/26 06:50:00,22.3,-6.1
2023/01/26 07:00:00,22.3,-5.6
2023/01/26 07:10:00,22.2,-5.8
2023/01/26 07:20:00,22.1,-5.5
2023/01/26 07:30:00,22.1,-5.4
2023/01/26 07:40:00,22.1,-5.0
2023/01/26 07:50:00,22.0,-5.5
2023/01/26 08:00:00,22.0,-4.9
2023/01/26 08:10:00,22.1,-4.8
2023/01/26 08:20:00,22.1,-3.8
2023/01/26 08:30:00,22.0,-0.6
2023/01/26 08:40:00,21.9, 0.7
2023/01/26 08:50:00,21.8, 3.0
2023/01/26 09:00:00,21.9, 4.8
2023/01/26 09:10:00,21.8, 5.0
2023/01/26 09:20:00,21.7, 5.8
2023/01/26 09:30:00,21.8, 6.4
2023/01/26 09:40:00,21.9, 7.4
2023/01/26 09:50:00,21.8, 8.2
2023/01/26 10:00:00,21.8, 7.5
2023/01/26 10:10:00,21.7, 8.9
2023/01/26 10:20:00,21.6,10.3
2023/01/26 10:30:00,21.2,10.1
2023/01/26 10:40:00,21.2, 9.5
2023/01/26 10:50:00,21.3,10.2
2023/01/26 11:00:00,21.3,11.0
2023/01/26 11:10:00,21.2,12.3
2023/01/26 11:20:00,20.9,10.6
2023/01/26 11:30:00,19.9, 8.9
2023/01/26 11:40:00,19.6, 9.2
2023/01/26 11:50:00,19.7,10.6
2023/01/26 12:00:00,19.6, 7.1
2023/01/26 12:10:00,19.8, 7.6
2023/01/26 12:20:00,19.9,10.4
2023/01/26 12:30:00,20.0,13.4
2023/01/26 12:40:00,19.7,12.2
2023/01/26 12:50:00,19.6,10.6
2023/01/26 13:00:00,19.6, 9.9
2023/01/26 13:10:00,19.0, 9.6
2023/01/26 13:20:00,18.5, 9.5
2023/01/26 13:30:00,18.4,10.5
2023/01/26 13:40:00,17.5, 6.5
2023/01/26 13:50:00,17.3, 8.1
2023/01/26 14:00:00,17.1, 8.2
2023/01/26 14:10:00,16.9, 7.0
2023/01/26 14:20:00,17.0, 5.4
2023/01/26 14:30:00,16.7, 4.2
2023/01/26 14:40:00,16.6, 3.9
2023/01/26 14:50:00,16.6, 3.3
2023/01/26 15:00:00,16.4, 3.2
2023/01/26 15:10:00,16.3, 2.7
2023/01/26 15:20:00,16.1, 1.8
2023/01/26 15:30:00,16.1, 2.4
2023/01/26 15:40:00,15.9, 2.4
2023/01/26 15:50:00,15.9, 2.4
2023/01/26 16:00:00,15.7, 2.1
2023/01/26 16:10:00,15.7, 2.1
2023/01/26 16:20:00,15.6, 2.0
2023/01/26 16:30:00,15.6, 1.3
2023/01/26 16:40:00,15.5, 1.4
2023/01/26 16:50:00,15.5, 1.1
2023/01/26 17:00:00,15.4, 0.7
2023/01/26 17:10:00,15.3, 0.5
2023/01/26 17:20:00,15.3, 0.7
2023/01/26 17:30:00,15.2, 0.6
2023/01/26 17:40:00,15.1, 0.4
2023/01/26 17:50:00,15.1, 0.3
2023/01/26 18:00:00,15.1, 0.7
2023/01/26 18:10:00,15.0, 0.3
2023/01/26 18:20:00,15.0, 0.2
2023/01/26 18:30:00,14.9, 0.1
2023/01/26 18:40:00,14.8,-0.2
2023/01/26 18:50:00,14.8,-0.3
2023/01/26 19:00:00,14.8, 0.1
2023/01/26 19:10:00,14.8, 0.1
2023/01/26 19:20:00,14.8, 0.1
2023/01/26 19:30:00,14.7,-0.2
2023/01/26 19:40:00,14.7, 0.0
2023/01/26 19:50:00,14.7,-0.1
2023/01/26 20:00:00,14.7,-0.3
2023/01/26 20:10:00,14.6,-0.2
2023/01/26 20:20:00,14.6,-0.2
2023/01/26 20:30:00,14.5, 0.0
2023/01/26 20:40:00,14.5,-0.1
2023/01/26 20:50:00,14.4,-0.5
2023/01/26 21:00:00,14.4,-0.2
2023/01/26 21:10:00,14.3,-0.3
2023/01/26 21:20:00,14.3, 0.0
2023/01/26 21:30:00,14.3,-0.4
2023/01/26 21:40:00,14.3,-0.3
2023/01/26 21:50:00,14.2, 0.0
2023/01/26 22:00:00,14.2, 0.1
2023/01/26 22:10:00,14.1, 0.0
2023/01/26 22:20:00,14.1, 0.1
2023/01/26 22:30:00,14.1, 0.0
2023/01/26 22:40:00,14.1, 0.0
2023/01/26 22:50:00,14.1, 0.0
2023/01/26 23:00:00,14.0, 0.0
2023/01/26 23:10:00,14.0, 0.1
2023/01/26 23:20:00,14.0,-0.4
2023/01/26 23:30:00,14.0, 0.0
2023/01/26 23:40:00,14.1,-0.1
2023/01/26 23:50:00,14.1, 0.0
